{"data":{"norad_id":56367,"intl_designator":"2023-059A","name":"O3B MPOWER F4","alt_names":[],"object_type":"PAYLOAD","status":"ACTIVE","operator":null,"country":"O3B","launch_date":"2023-04-28","launch_site_code":"AFETR","launch_vehicle":null,"mission":null,"orbit_class":"UNKNOWN","rcs_meters":null,"size_class":null,"mass_kg":null,"dimensions":null,"purposes":["comms"],"wikipedia_slug":null,"has_3d_model":false,"image_url":null,"decayed_at":null,"tle_current":{"epoch":"2026-05-24T23:41:25.915200Z","epoch_age_seconds":75470,"freshness":"FRESH","line1":"1 56367U 23059A   26144.98710550 -.00000024  00000+0  00000+0 0  9993","line2":"2 56367   0.0644 358.5617 0007503  74.0705 287.4493  5.00115699 57449","mean_motion":5.00115699,"eccentricity":0.0007503,"inclination_deg":0.0644,"raan_deg":358.5617,"arg_perigee_deg":74.0705,"mean_anomaly_deg":287.4493,"bstar":0,"rev_number":5744,"period_min":287.9333727934,"perigee_km":8055.0490359455,"apogee_km":8076.7237374396,"semimajor_km":14444.023386693,"source":"CELESTRAK","updated_at":"2026-05-25T13:38:14.519035Z"}}}